Pratica Di Mare Airport LIRE

Flugplatz Daten

Name: Pratica Di Mare Airport

Ident: LIRE

Lat: 41,65449905

Long: 12,44519997

Platzhöhe: 41 ft

IataCode:

City: Pomezia

Metar

2022/08/13 16:55
LIRE 131655Z 26007KT CAVOK 27/23 Q1010 RMK SKC VIS MIN 9999 WIND THR13 29007KT WIND THR31 /////KT BLU

Taf

Gewünschte Webcam nicht vorhanden? Dann fügen Sie eine hinzu. Sie wird dann so schnell wie möglich freigeschaltet
Url: Title: